Toronto Pearson, Ontario

10:23 PM EDT on July 20, 2019 (GMT -0400)
Toronto-Pearson International

Weather History for CYYZ - May, 2019

Change the Weather History Date:

Thursday, May 16, 2019

  Actual Average Record
Temperature  
Mean Temperature 52 °F -  
Max Temperature 58 °F 70 °F 78 °F (2015)
Min Temperature 45 °F 48 °F 32 °F (2016)
Degree Days  
Heating Degree Days 14    
Growing Degree Days 2 (Base 50)    
Moisture  
Dew Point 45 °F    
Average Humidity 73    
Maximum Humidity 87    
Minimum Humidity 59    
Precipitation  
Precipitation 0.00 in 0.09 in - ()
Sea Level Pressure  
Sea Level Pressure 29.86 in    
Wind  
Wind Speed 8 mph ()    
Max Wind Speed 18 mph    
Max Gust Speed 21 mph    
Visibility 15.0 miles    
Events Rain    
Averages and records for this station are not official NWS values.
T = Trace of Precipitation, MM = Missing Value Source: Averaged Metar Reports

Daily Weather History Graph

Daily Weather History Graph

Search for Another Location

Airport or City:

Astronomy

May. 16, 2019 Rise Set
Actual Time 5:52 AM EDT 8:37 PM EDT
Civil Twilight 5:19 AM EDT 9:11 PM EDT
Nautical Twilight 4:37 AM EDT 9:53 PM EDT
Astronomical Twilight 3:49 AM EDT 10:42 PM EDT
Moon 6:08 PM EDT (5/16) 4:57 AM EDT (5/16)
Length of Visible Light 15h 51m
Length of Day
14h 45m
Waxing Gibbous, 94% of the Moon is Illuminated
May 16
Waxing Gibbous
May 18
Full
May 26
Last Quarter
Jun 3
New
Jun 10
First Quarter

Hourly Weather History & Observations

Time (EDT) Temp. Windchill Dew Point Humidity Pressure Visibility Wind Dir Wind Speed Gust Speed Precip Events Conditions
12:00 AM 55.4 °F - 44.6 °F 67% 29.86 in 15.0 mi NE 8.1 mph - N/A   Mostly Cloudy
1:00 AM 51.8 °F - 44.6 °F 76% 29.86 in 15.0 mi NE 8.1 mph - N/A   Partly Cloudy
2:00 AM 51 °F - 44 °F 71% 29.87 in 15 mi NNE 5.8 mph - -   Scattered Clouds
2:00 AM 50.0 °F - 44.6 °F 82% 29.87 in 15.0 mi NNE 5.8 mph - N/A   Partly Cloudy
3:00 AM 50.0 °F - 44.6 °F 82% 29.87 in 15.0 mi NNE 5.8 mph - N/A   Partly Cloudy
4:00 AM 48.2 °F - 42.8 °F 82% 29.88 in 15.0 mi NE 8.1 mph - N/A   Clear
5:00 AM 46 °F - 43 °F 84% 29.90 in 15 mi NE 8.1 mph - -  
5:00 AM 46.4 °F 42.4 °F 42.8 °F 87% 29.89 in 15.0 mi NE 8.1 mph - N/A   Clear
6:00 AM 46.4 °F 42.4 °F 42.8 °F 87% 29.91 in 15.0 mi NE 8.1 mph - N/A   Partly Cloudy
8:00 AM 50 °F - 42 °F 67% 29.95 in 15 mi ENE 8.1 mph - -   Scattered Clouds
8:00 AM 50.0 °F - 42.8 °F 76% 29.95 in 15.0 mi ENE 8.1 mph - N/A   Mostly Cloudy
9:00 AM 53.6 °F - 44.6 °F 72% 29.95 in 15.0 mi East 5.8 mph - N/A   Mostly Cloudy
10:00 AM 55.4 °F - 46.4 °F 72% 29.94 in 15.0 mi SSE 11.5 mph 17.3 mph N/A   Mostly Cloudy
11:00 AM 54 °F - 46 °F 66% 29.94 in 15 mi SSE 12.7 mph - -  
11:00 AM 55.4 °F - 46.4 °F 72% 29.94 in 15.0 mi SSE 17.3 mph - N/A   Mostly Cloudy
12:00 PM 53.6 °F - 46.4 °F 77% 29.95 in 15.0 mi SSE 11.5 mph 19.6 mph N/A   Overcast
1:00 PM 55.4 °F - 46.4 °F 72% 29.94 in 15.0 mi ESE 5.8 mph - N/A   Mostly Cloudy
2:00 PM 55 °F - 46 °F 64% 29.89 in 15 mi SSE 12.7 mph - -   Overcast
2:00 PM 55.4 °F - 46.4 °F 72% 29.89 in 15.0 mi SSE 18.4 mph - N/A   Overcast
2:42 PM 53.6 °F - 46.4 °F 77% 29.88 in 15.0 mi SE 10.4 mph 18.4 mph N/A Rain Light Rain
3:00 PM 57.2 °F - 46.4 °F 67% 29.88 in 15.0 mi SSE 16.1 mph - N/A   Mostly Cloudy
4:00 PM 57.2 °F - 48.2 °F 72% 29.85 in 15.0 mi SSE 12.7 mph 19.6 mph N/A   Mostly Cloudy
5:00 PM 56 °F - 47 °F 65% 29.82 in 15 mi SSE 10.4 mph - -  
5:00 PM 57.2 °F - 48.2 °F 72% 29.81 in 15.0 mi SSE 10.4 mph 20.7 mph N/A   Mostly Cloudy
6:00 PM 55.4 °F - 46.4 °F 72% 29.80 in 15.0 mi SSE 12.7 mph 20.7 mph N/A Rain Light Rain
6:55 PM 57.2 °F - 44.6 °F 63% 29.79 in 15.0 mi SE 6.9 mph 17.3 mph N/A   Overcast
7:00 PM 57.2 °F - 44.6 °F 63% 29.79 in 15.0 mi SSE 13.8 mph 20.7 mph N/A   Overcast
8:00 PM 54 °F - 44 °F 59% 29.76 in 15 mi SSE 12.7 mph - -   Partly Cloudy
8:00 PM 53.6 °F - 44.6 °F 72% 29.76 in 15.0 mi SSE 9.2 mph 20.7 mph N/A   Overcast
9:00 PM 51.8 °F - 42.8 °F 71% 29.75 in 15.0 mi SE 6.9 mph - N/A   Overcast
10:00 PM 51.8 °F - 44.6 °F 76% 29.73 in 15.0 mi SE 5.8 mph - N/A   Overcast
11:00 PM 53 °F - 46 °F 68% 29.71 in 15 mi SSE 10.4 mph - -  
11:00 PM 51.8 °F - 46.4 °F 82% 29.70 in 15.0 mi SSE 11.5 mph - N/A   Mostly Cloudy